Hourly Data Report for September 16, 2017

All times are specified in Local Standard Time (LST). Add 1 hour to adjust for Daylight Saving Time where and when it is observed.

COMOX A
BRITISH COLUMBIA

49°43'00.000" N
124°54'00.000" W
25.60 m
1021830
71893
YQQ

Download Data

Hourly Data (September 2017)
Hourly Data Report for September 16, 2017
Temp Definition
°C
Dew Point Temp Definition
°C
Rel Hum Definition
%
Wind Dir Definition
10's deg

Wind Spd Definition
km/h
Visibility Definition
km
Stn Press Definition
kPa
Hmdx Definition


Wind Chill Definition


Weather Definition


TIME
00:00 13.1 5.6 60 32 4 32.2 101.30     Cloudy
01:00 13.4 5.3 58   0 32.2 101.32     Cloudy
02:00 12.3 5.7 64 28 4 32.2 101.34     Cloudy
03:00 13.8 5.1 56 36 7 32.2 101.32     Mostly Cloudy
04:00 12.1 6.1 67 21 4 32.2 101.33     Mostly Cloudy
05:00 11.1 6.2 72   0 32.2 101.33     Mostly Cloudy
06:00 11.0 6.0 71 29 6 32.2 101.36     Mostly Cloudy
07:00 11.6 6.2 69 24 4 32.2 101.39     Mostly Cloudy
08:00 13.3 7.5 68   0 32.2 101.40     Mostly Cloudy
09:00 15.2 9.0 66 2 7 32.2 101.41     Mainly Clear
10:00 15.6 9.9 69 3 9 32.2 101.41     Mainly Clear
11:00 15.9 9.9 68 9 6 32.2 101.36     Mainly Clear
12:00 18.1 8.6 54 11 15 32.2 101.27     Mainly Clear
13:00 19.0 8.6 51 13 11 32.2 101.21     Mainly Clear
14:00 18.6 10.0 57 11 11 32.2 101.16     Mainly Clear
15:00 19.3 9.1 52 14 19 32.2 101.06     Mostly Cloudy
16:00 20.1 7.2 43 17 15 32.2 101.02     Mostly Cloudy
17:00 20.0 7.5 44 16 17 32.2 100.94     Mostly Cloudy
18:00 18.2 7.3 49 17 13 32.2 100.89     Mainly Clear
19:00 15.5 8.9 65 18 11 32.2 100.84     Mainly Clear
20:00 14.8 7.5 62 18 9 32.2 100.83     Mainly Clear
21:00 14.5 8.2 66 21 7 32.2 100.82     Mainly Clear
22:00 13.1 8.0 71 9 4 32.2 100.79     Clear
23:00 13.9 9.4 74 22 4 32.2 100.73     Mainly Clear

Notes on Data Quality.

Legend

  • E = Estimated
  • M = Missing
  • NA = Not Available
  • ‡ = Partner data that is not subject to review by the National Climate Archives
Date modified: